Location: Bernhardshof
(48.4000°N, 15.2333°E)
Time: 23:06:29
(UTC+00:00)

Daily predictions for brighter satellites

Satellite Brightness Start Highest point End
(mag) Time Altitude Azimuth Time Altitude Azimuth Time Altitude Azimuth
USA 215 3.3 16:52:45 10° ENE 16:59:19 76° SE 17:05:51 10° SW
Cosmos 1850 Rocket 4.1 16:56:47 10° S 17:01:55 62° ESE 17:07:08 10° NNE
Aureole 1 4.5 16:59:01 10° SSW 17:02:05 80° WNW 17:05:45 10° NNE
Cosmos 2279 Rocket 4.0 16:56:37 10° N 17:02:55 79° E 17:09:11 10° SSE
Cosmos 2369 3.7 16:58:32 10° SSW 17:04:15 80° ESE 17:09:59 10° NNE
SL-08 RB Rocket 4.4 17:00:04 10° S 17:04:37 63° W 17:09:15 10° NNW
Cosmos 1733 Rocket 3.1 17:00:46 10° S 17:05:10 64° E 17:09:35 10° NNE
BREEZE-M DEB (TANK) 4.1 17:01:40 10° SW 17:05:51 55° SE 17:21:21 10° ENE
Cosmos 1844 Rocket 3.9 17:01:46 10° N 17:06:19 24° NE 17:10:51 10° E
COBE Rocket 4.1 17:03:45 10° SE 17:08:22 46° ENE 17:12:53 10° N
Cosmos 2221 Rocket 3.6 17:05:04 10° N 17:09:38 73° E 17:14:09 10° SSE
Cosmos 2278 4.0 17:04:41 10° S 17:10:06 48° ESE 17:15:33 10° NE
SL-16 R/B 3.2 17:06:46 10° SSE 17:11:14 25° ESE 17:15:43 10° NE
Cosmos 1570 Rocket 4.5 17:08:35 10° NNW 17:13:34 40° ENE 17:18:29 10° SE
PAYLOAD B 4.2 17:08:08 10° SSE 17:13:38 77° ENE 17:19:09 10° NNW
CZ-4B DEB 4.4 17:09:35 10° SSE 17:15:03 82° WSW 17:20:35 10° NNW
SKYMED 3 4.4 17:11:40 10° NNE 17:15:47 68° ESE 17:19:52 10° S
BREEZE-M DEB (TANK) 2.7 17:17:29 10° W 17:19:34 45° SSW 17:22:40 10° SE
COSMO-SKYMED 1 2.7 17:20:57 10° NNE 17:25:19 81° WNW 17:29:40 10° SSW
Cosmos 2263 Rocket 2.4 17:20:19 10° NNW 17:26:03 79° WSW 17:31:44 10° SSE
Meteor 1-24 Rocket 4.2 17:22:48 10° N 17:27:37 34° ENE 17:32:28 10° SE
SJ-6B 4.3 17:26:35 14° E 17:28:17 18° ENE 17:30:54 10° NNE
Cosmos 1437 Rocket 3.4 17:27:03 10° SSE 17:30:23 31° E 17:33:43 10° NNE
Spot 1 3.9 17:26:38 10° NNE 17:30:50 69° ESE 17:34:52 10° S
ASTEX 1 3.5 17:26:22 10° N 17:31:23 84° W 17:36:23 10° S
HJ-1C 3.3 17:29:09 10° SSE 17:32:11 53° ENE 17:35:14 10° N
Cosmos 1741 Rocket 4.2 17:28:07 10° SSW 17:33:24 80° WNW 17:38:41 10° NNE
Feng Yun 1-1 Rocket 4.3 17:29:49 10° SE 17:35:05 52° ENE 17:40:20 10° N
USA 267 3.5 17:28:43 10° SE 17:35:15 71° SW 17:41:50 10° WNW
IRIDIUM 104 4.3 17:30:26 10° S 17:35:34 63° E 17:40:45 10° N
Cosmos 1814 Rocket 4.0 17:32:13 10° NNW 17:37:30 85° ENE 17:42:41 10° SSE
SL-4 R/B 2.6 17:34:04 10° WNW 17:38:27 64° SSW 17:42:27 14° SE
Cosmos 1844 4.5 17:35:55 10° NNW 17:40:54 32° NE 17:44:18 18° ESE
Cosmos 2084 Rocket 3.6 17:37:18 10° NNW 17:41:00 44° NE 17:43:23 20° ESE
Cosmos 1805 4.2 17:38:07 10° SSW 17:41:54 51° WNW 17:45:43 10° N
Cosmos 2208 Rocket 4.2 17:36:56 10° NNW 17:42:15 54° ENE 17:47:33 10° SE
Cosmos 1242 Rocket 4.4 17:40:00 10° SW 17:43:16 34° WNW 17:46:33 10° N
Cosmos 2227 4.2 17:37:43 10° NNW 17:43:23 88° ENE 17:49:00 10° SSE
IRIDIUM 114 4.2 17:39:30 10° S 17:44:42 76° E 17:49:56 10° N
Okean-O 3.7 17:42:56 18° ESE 17:45:04 27° ENE 17:48:46 10° N
Cosmos 489 Rocket 4.4 17:40:21 10° SSW 17:46:40 75° ESE 17:52:59 10° NNE
CZ-4 R/B 1.4 17:43:36 10° SSE 17:47:45 68° ENE 17:51:55 10° N
ISS -1.4 17:45:30 10° W 17:48:06 20° SW 17:50:40 10° S
Cosmos 1697 Rocket 4.5 17:43:59 10° WSW 17:48:58 32° NW 17:54:01 10° NNE
IGS 5A 4.3 17:48:12 21° ESE 17:49:59 29° ENE 17:53:36 10° N
Meteor 1-12 Rocket 4.3 17:45:00 10° S 17:50:57 73° E 17:56:59 10° NNE
BREEZE M DEB (TANK) 3.5 17:45:45 10° SW 17:51:44 28° SSE 17:53:02 23° ESE
Cosmos 1908 Rocket 3.4 17:49:11 10° S 17:53:29 72° E 17:57:49 10° NNE
OBJECT-B 1.5 17:54:14 25° NE 17:54:14 25° NE 17:55:51 10° N
IRIDIUM 103 4.3 17:48:37 10° S 17:53:50 89° ESE 17:59:06 10° N
Meteor 2-21 4.5 17:48:04 10° S 17:54:05 84° W 18:00:12 10° N
Cosmos 2360 Rocket 3.0 17:51:16 10° SSE 17:55:50 26° ESE 18:00:25 10° NE
USA 81 4.4 17:53:04 10° N 17:58:08 44° ENE 18:02:39 13° SSE
Cosmos 1782 Rocket 3.7 17:57:33 10° SSE 18:01:42 47° E 18:05:55 10° NNE
Cosmos 1766 3.7 17:57:50 10° SSW 18:01:43 64° WNW 18:05:40 10° N
Cosmos 1025 Rocket 3.2 18:01:45 10° N 18:05:56 46° ENE 18:07:57 27° SE
YAOGAN 1 3.2 18:01:49 10° S 18:06:04 57° W 18:10:21 10° NNW
Cosmos 2026 Rocket 4.0 18:01:52 10° SSE 18:07:43 54° E 18:13:37 10° NNE
Cosmos 968 Rocket 3.4 18:03:21 10° SSW 18:08:36 78° ESE 18:13:51 10° NNE
ATLAS 2AS CENTAUR R/B 4.4 18:02:52 10° NW 18:08:42 24° N 18:14:11 10° NE
Okean O Rocket 2.0 18:05:34 10° S 18:09:53 64° WSW 18:14:16 10° NNW
Lacrosse 4 Rocket 1.7 18:09:39 10° S 18:13:29 41° ESE 18:13:56 39° E
Meteor 2-5 Rocket 3.6 18:10:04 10° NNW 18:15:39 90° ENE 18:21:12 10° S
Nadezhda 4 Rocket 4.3 18:09:21 10° SSW 18:15:40 72° W 18:21:59 10° N
CSL-04 Rocket 3.7 18:13:27 21° SE 18:17:02 60° ENE 18:22:23 10° N
Meteor 1-15 Rocket 4.2 18:11:50 10° SSW 18:17:24 83° W 18:23:01 10° N
Cosmos 1553 Rocket 4.3 18:12:39 10° N 18:18:45 46° ENE 18:21:53 27° SE
USA 186 1.7 18:22:42 68° ESE 18:22:56 72° ENE 18:26:19 10° N
Cosmos 1726 4.4 18:20:57 10° SW 18:24:03 26° WNW 18:27:12 10° NNW
Cosmos 2322 Rocket 2.1 18:18:55 10° SSW 18:24:31 63° ESE 18:30:10 10° NNE
Cosmos 2237 4.1 18:19:30 10° SSW 18:25:08 65° ESE 18:30:47 10° NNE
Landsat 7 4.0 18:25:23 42° ESE 18:26:23 49° ENE 18:30:57 10° N
SPOT 1/Viking Rocket 4.3 18:27:16 31° ENE 18:27:26 31° ENE 18:31:55 10° N
Cosmos 1470 2.8 18:24:40 10° SSW 18:28:31 78° W 18:32:22 10° N
deb Chang Zheng 4 4.2 18:29:32 34° NE 18:29:32 34° NE 18:32:47 10° N
Cosmos 1975 Rocket 2.9 18:26:34 10° N 18:31:01 88° E 18:33:09 30° S
Cosmos 1980 Rocket 4.0 18:26:11 10° WSW 18:31:07 30° NW 18:36:03 10° NNE
NOSS 3-3 (A) 4.2 18:27:08 10° S 18:32:16 39° ESE 18:32:26 39° ESE
NOSS 3-3 (C) 4.2 18:27:15 10° S 18:32:22 39° ESE 18:32:22 39° ESE
Ariane Rocket 4.3 18:36:14 24° NE 18:36:14 24° NE 18:39:37 10° N
CRYOSAT 2 4.3 18:34:18 17° S 18:38:05 89° E 18:43:02 10° N
Cosmos 2292 Rocket 4.4 18:33:48 10° SSW 18:38:44 52° W 18:42:32 10° N
USA 215 3.9 18:36:54 15° NE 18:42:12 53° NNW 18:48:30 10° W
Aureole 1 Rocket 4.3 18:35:23 10° S 18:42:20 45° ESE 18:47:57 10° NE
IRS-1C Rocket 4.0 18:43:42 36° SSE 18:45:58 88° ENE 18:51:17 10° NNW
Cosmos 1844 Rocket 2.7 18:45:10 10° NNW 18:50:51 78° WSW 18:52:59 40° SSE
SL-16 R/B 2.7 18:49:18 10° SW 18:54:54 61° WNW 19:00:33 10° NNE
Landsat 5 3.8 18:50:48 10° N 18:55:18 70° WNW 18:59:42 10° SSW
Cosmos 1943 Rocket 4.3 18:55:00 10° N 18:56:54 12° NNE 18:57:29 11° NE
Cosmos 1092 Rocket 4.5 18:50:59 10° SSW 18:57:13 62° WNW 19:03:26 10° N
Resurs 01 Rocket 2.5 19:01:19 39° NNE 19:01:19 39° NNE 19:04:22 10° N
Terra 4.2 19:03:49 11° NNE 19:03:49 11° NNE 19:04:18 10° NNE
SJ-6B 3.7 19:02:07 40° WSW 19:02:33 42° W 19:06:11 10° NNW
H-2A R/B 3.7 19:07:12 33° N 19:07:12 33° N 19:09:23 10° N
Cosmos 2278 Rocket 3.5 19:01:23 10° NNW 19:05:42 27° NE 19:05:42 27° NE
Resurs 1-3 4.0 19:11:26 57° WSW 19:11:36 58° W 19:15:57 10° NNW
IRS-1A Rocket 4.3 19:15:25 68° NE 19:15:25 68° NE 19:21:00 10° N
SL-4 R/B 4.4 19:14:23 10° W 19:17:23 17° SW 19:17:51 17° SW
Cosmos 921 Rocket 4.4 19:12:59 10° NNW 19:15:35 32° N 19:15:35 32° N
Okean-O 3.9 19:20:29 34° SW 19:21:23 38° W 19:25:32 10° NNW
CZ-4 R/B 4.4 19:21:01 10° WSW 19:23:07 13° W 19:25:13 10° WNW
Cosmos 1486 Rocket 4.4 19:18:51 10° SW 19:24:07 64° WNW 19:29:27 10° NNE
Cosmos 1844 4.3 19:19:54 10° NW 19:25:16 50° WSW 19:26:13 45° SW
Cosmos 2266 Rocket 4.3 19:26:59 53° NE 19:26:59 53° NE 19:31:58 10° NNE
DNEPR-1 R/B 4.4 19:24:02 10° SW 19:28:48 60° NW 19:30:36 40° NNE
S3M 3.8 19:23:49 10° N 19:30:06 90° ESE 19:30:10 88° SSE
Cosmos 773 Rocket 4.3 19:26:25 10° NNW 19:31:00 66° NW 19:31:00 66° NW
Meteor 1-21 Rocket 4.3 19:26:41 10° NNW 19:31:33 69° NNW 19:31:33 69° NNW
Cosmos 2360 Rocket 2.7 19:33:54 10° SW 19:39:27 58° WNW 19:45:02 10° NNE
Lacrosse 4 Rocket 3.8 19:48:40 10° WSW 19:50:17 19° W 19:50:17 19° W
ATLAS 2AS CENTAUR R/B 3.6 19:55:05 10° NW 20:01:35 37° NNE 20:01:35 37° NNE
Cosmos 2322 Rocket 4.0 20:04:08 10° WSW 20:09:00 28° NW 20:13:55 10° NNE
NOSS 3-4 (A) 4.0 20:06:04 10° NW 20:12:04 70° WNW 20:12:04 70° WNW
NOSS 3-4 (C) 4.0 20:06:10 10° NW 20:12:10 70° WNW 20:12:10 70° WNW
USA 215 4.1 20:24:15 42° N 20:24:33 42° N 20:30:36 10° WNW
USA 281 3.9 20:27:40 48° N 20:27:40 48° N 20:32:16 10° NNW
Terra 4.5 20:42:43 15° NNW 20:42:43 15° NNW 20:43:34 10° NNW
Cosmos 1943 Rocket 4.2 20:37:01 10° NNW 20:38:59 21° N 20:38:59 21° N
Cosmos 2278 Rocket 4.1 20:45:06 10° NNW 20:47:32 26° NW 20:47:32 26° NW
ATLAS 2AS CENTAUR R/B 4.5 21:46:14 10° NW 21:49:00 25° NW 21:49:00 25° NW
